KC5TY Weather Reports


Display with metric or nautical units.
time (UTC)temp
F
wind
direction
speed
MPH
gust
MPH
rain 1hr
in
rain 24hr
in
rain mn
in
humidity
%
barometer
mb
20260906230041 95 264 0.0 0.0 0.00 0.00 0.00 17 998.7
20260906224549 95 264 0.0 0.0 0.00 0.00 0.00 18 999.0
20260906223039 95 264 0.0 0.0 0.00 0.00 0.00 17 998.9
20260906221542 95 316 0.0 0.0 0.00 0.00 0.00 17 998.8
20260906220037 95 317 0.0 0.0 0.00 0.00 0.00 16 998.8
20260906214544 95 325 0.0 0.0 0.00 0.00 0.00 17 998.9
20260906213036 97 297 0.0 0.0 0.00 0.00 0.00 15 999.0
20260906211542 97 302 0.0 0.0 0.00 0.00 0.00 15 999.7
20260906210044 97 346 0.0 0.0 0.00 0.00 0.00 14 1000.0
20260906204535 97 347 0.0 0.0 0.00 0.00 0.00 15 1000.4
20260906203032 96 349 0.0 0.0 0.00 0.00 0.00 15 1000.4
20260906201531 97 353 0.0 0.0 0.00 0.00 0.00 16 1000.2
20260906200029 97 349 0.0 0.0 0.00 0.00 0.00 16 1000.6
20260906194528 95 349 0.0 0.0 0.00 0.00 0.00 15 1000.7
20260906193028 96 342 0.0 0.0 0.00 0.00 0.00 14 1001.3
20260906191531 95 345 0.0 0.0 0.00 0.00 0.00 15 1001.4
20260906190028 93 345 0.0 0.0 0.00 0.00 0.00 15 1001.6
20260906184517 93 345 0.0 0.0 0.00 0.00 0.00 16 1002.0
20260906183016 92 354 0.0 0.0 0.00 0.00 0.00 17 1002.4
20260906181529 91 354 0.0 0.0 0.00 0.00 0.00 18 1002.2
20260906180013 92 354 0.0 0.0 0.00 0.00 0.00 19 1002.2
20260906174509 90 354 0.0 0.0 0.00 0.00 0.00 24 1002.8
20260906173007 88 354 0.0 0.0 0.00 0.00 0.00 25 1003.3
20260906171505 88 354 0.0 0.0 0.00 0.00 0.00 25 1003.4
20260906170001 85 354 0.0 0.0 0.00 0.00 0.00 29 1004.1
20260906164614 81 352 0.0 0.0 0.00 0.00 0.00 31 1004.0
20260906163058 82 352 0.0 0.0 0.00 0.00 0.00 31 1004.1
20260906161557 82 0 0.0 0.0 0.00 0.00 0.00 31 1004.1
20260906160054 81 0 0.0 0.0 0.00 0.00 0.00 32 1004.2
20260906154556 80 351 0.0 0.0 0.00 0.00 0.00 32 1004.1
20260906153049 79 349 0.0 0.0 0.00 0.00 0.00 32 1004.3
20260906151552 77 0 0.0 0.0 0.00 0.00 0.00 35 1004.8
20260906150050 75 331 0.0 0.0 0.00 0.00 0.00 36 1005.1
20260906144547 74 298 0.0 0.0 0.00 0.00 0.00 35 1005.1
20260906143105 74 296 0.0 0.0 0.00 0.00 0.00 34 1004.9
20260906141544 73 290 0.0 0.0 0.00 0.00 0.00 35 1004.9
20260906140047 71 285 0.0 0.0 0.00 0.00 0.00 36 1005.4
20260906134550 69 271 0.0 0.0 0.00 0.00 0.00 38 1005.1
20260906133047 69 269 0.0 0.0 0.00 0.00 0.00 38 1005.0
20260906131549 69 270 0.0 0.0 0.00 0.00 0.00 38 1004.2
20260906130046 69 271 0.0 0.0 0.00 0.00 0.00 37 1004.0
20260906124541 69 271 0.0 0.0 0.00 0.00 0.00 37 1004.4
20260906123041 69 271 0.0 0.0 0.00 0.00 0.00 38 1004.4
20260906121544 69 271 0.0 0.0 0.00 0.00 0.00 37 1003.7
20260906120036 70 271 0.0 0.0 0.00 0.00 0.00 37 1003.9
20260906114535 70 271 0.0 0.0 0.00 0.00 0.00 36 1003.7
20260906113042 71 271 0.0 0.0 0.00 0.00 0.00 35 1003.2
20260906111535 71 271 0.0 0.0 0.00 0.00 0.00 35 1002.8
20260906110028 72 271 0.0 0.0 0.00 0.00 0.00 34 1002.8
20260906104526 72 270 0.0 0.0 0.00 0.00 0.00 34 1002.8
20260906103025 73 0 0.0 0.0 0.00 0.00 0.00 34 1002.7
20260906101524 73 271 0.0 0.0 0.00 0.00 0.00 33 1001.9
20260906100023 73 271 0.0 0.0 0.00 0.00 0.00 34 1001.9
20260906094531 73 271 0.0 0.0 0.00 0.00 0.00 33 1002.0
20260906093022 73 271 0.0 0.0 0.00 0.00 0.00 34 1001.8
20260906091527 73 271 0.0 0.0 0.00 0.00 0.00 36 1001.8
20260906090020 73 271 0.0 0.0 0.00 0.00 0.00 35 1001.9
20260906084524 74 271 0.0 0.0 0.00 0.00 0.00 34 1002.0
20260906083022 74 271 0.0 0.0 0.00 0.00 0.00 33 1001.6
20260906081530 74 271 0.0 0.0 0.00 0.00 0.00 33 1002.1
20260906080012 74 271 0.0 0.0 0.00 0.00 0.00 33 1002.3
20260906074511 75 271 0.0 0.0 0.00 0.00 0.00 33 1002.4
20260906073008 75 271 0.0 0.0 0.00 0.00 0.00 32 1002.2
20260906071505 76 271 0.0 0.0 0.00 0.00 0.00 32 1002.2
20260906070002 77 270 0.0 0.0 0.00 0.00 0.00 31 1002.2
20260906064600 78 269 0.0 0.0 0.00 0.00 0.00 29 1001.7
20260906063101 79 271 0.0 0.0 0.00 0.00 0.00 29 1001.6
20260906061557 79 271 0.0 0.0 0.00 0.00 0.00 29 1001.9
20260906060055 79 271 0.0 0.0 0.00 0.00 0.00 30 1001.8
20260906054557 78 271 0.0 0.0 0.00 0.00 0.00 30 1001.9
20260906053054 79 271 0.0 0.0 0.00 0.00 0.00 29 1001.8
20260906051555 79 271 0.0 0.0 0.00 0.00 0.00 29 1002.1
20260906050114 79 271 0.0 0.0 0.00 0.00 0.00 28 1002.2
20260906044556 80 269 0.0 0.0 0.00 0.00 0.00 28 1002.3
20260906043105 80 0 0.0 0.0 0.00 0.00 0.00 28 1002.2
20260906041552 81 269 0.0 0.0 0.00 0.00 0.00 27 1002.9
20260906040051 81 269 0.0 0.0 0.00 0.00 0.00 27 1003.4
20260906034553 81 0 0.0 0.0 0.00 0.00 0.00 27 1003.3
20260906033051 81 0 0.0 0.0 0.00 0.00 0.00 27 1002.8
20260906031549 81 271 0.0 0.0 0.00 0.00 0.00 27 1002.9
20260906030056 82 271 0.0 0.0 0.00 0.00 0.00 27 1002.8
20260906024548 82 271 0.0 0.0 0.00 0.00 0.00 27 1002.6
20260906023052 83 271 0.0 0.0 0.00 0.00 0.00 27 1002.1
20260906021605 84 271 0.0 0.0 0.00 0.00 0.00 26 1003.3
20260906020047 85 0 0.0 0.0 0.00 0.00 0.00 26 1002.7
20260906014546 86 271 0.0 0.0 0.00 0.00 0.00 25 1002.7
20260906013046 87 271 0.0 0.0 0.00 0.00 0.00 25 1002.3
20260906011545 87 0 0.0 0.0 0.00 0.00 0.00 24 1003.2
20260906010045 88 269 0.0 0.0 0.00 0.00 0.00 24 1003.0
20260906004545 89 269 0.0 0.0 0.00 0.00 0.00 24 1003.2
20260906003050 89 269 0.0 0.0 0.00 0.00 0.00 24 1003.0
20260906001542 90 269 0.0 0.0 0.00 0.00 0.00 24 1002.8
20260906000043 90 269 0.0 0.0 0.00 0.00 0.00 24 1002.8
20260905234552 90 267 0.0 0.0 0.00 0.00 0.00 24 1002.9
20260905233042 91 269 0.0 0.0 0.00 0.00 0.00 23 1002.2
20260905231541 91 271 0.0 0.0 0.00 0.00 0.00 23 1001.8